Location: Ingoldesthorpe
(52.8667°N, 0.5167°E)
Time: 06:09:16
(UTC+00:00)

Cosmos 1697 Rocket - Pass Details

Date: 19 May 2025
Orbit: 830 x 844 km, 71.0° (Epoch: 13 June)

Event Time Altitude Azimuth Distance (km) Brightness Sun altitude
Rises 21:16:08 0° 327° (NNW) 3,407 8.2 -9.5°
Reaches altitude 10° 21:18:36 10° 324° (NW) 2,470 6.8 -9.7°
Maximum altitude 21:24:10 60° 246° (WSW) 962 3.1 -10.2°
Enters shadow 21:29:26 12° 168° (SSE) 2,353 4.4 -10.7°
